Printer-friendly version

IAU Minor Planet Center

Minor Planet Center

MPEC 2003-D16 : 2000 ED14

The following Minor Planet Electronic Circular may be linked-to from your own Web pages, but must not otherwise be redistributed electronically.

A form allowing access to any MPEC is at the bottom of this page.


Read MPEC 2003-D15 Read MPEC 2003-D17


M.P.E.C. 2003-D16                                Issued 2003 Feb. 24, 19:21 UT

     The Minor Planet Electronic Circulars contain information on unusual
         minor planets and routine data on comets.  They are published
   on behalf of Commission 20 of the International Astronomical Union by the
          Minor Planet Center, Smithsonian Astrophysical Observatory,
                          Cambridge, MA 02138, U.S.A.

             Prepared using the Tamkin Foundation Computer Network

                              MPC@CFA.HARVARD.EDU
          URL http://cfa-www.harvard.edu/iau/mpc.html  ISSN 1523-6714

                                   2000 ED14

                           Revision to MPEC 2000-E25

Additional Observations:
     K00E14D  C2003 02 23.00009 10 39 20.61 +45 07 12.4          19.9 R      J95
     K00E14D  C2003 02 23.01571 10 39 12.84 +45 07 39.6          19.4 R      J95
     K00E14D  C2003 02 23.03134 10 39 05.16 +45 08 07.1          19.3 R      J95
     K00E14D WC2003 02 24.76436 10 24 39.70 +45 52 29.2                      557
     K00E14D WC2003 02 24.76542 10 24 39.13 +45 52 28.5                      557
     K00E14D WC2003 02 24.76646 10 24 38.63 +45 52 30.3          19.9 V      557

Observer details:
557 Ondrejov.  Observer L. Sarounova.  0.65-m f/3.6 reflector + CCD.
J95 Great Shefford.  Observer P. Birtwhistle.  0.30-m f/6.3 Schmidt-Cassegrain
    + CCD.

First and last observations above in comparison with prediction:
Residuals in seconds of arc (or two decimals in degrees) and reference
030223 J95  7.6-  2.5+    030224 557  8.5-  3.6+    MPEC 2003-D01

Orbital elements:
2000 ED14
Epoch 2003 June 10.0 TT = JDT 2452800.5                 MPC
M   6.85155              (2000.0)            P               Q
n   1.29170103     Peri.  310.01784     +0.69330419     +0.72045390
a   0.8350158      Node     3.99661     -0.56711297     +0.55966279
e   0.5667707      Incl.   13.77634     -0.44464837     +0.40954088
P   0.76           H   20.8           G   0.15           U   2
Residuals in seconds of arc (radar residuals in s.d.)
000304 704  0.7-  1.3+    000306 611  0.2+  0.5+    000313 540  0.1-  0.5+
000304 704  0.1+  0.2-    000306 611  0.4+  0.8+    000313 587  0.9-  0.3-
000304 704  0.5-  0.2+    000307 106  0.4+  0.9+    000313 587  0.0+  1.3-
000304 704  1.6-  0.7-    000307 557  0.2-  0.2-    000313 587  0.6-  0.1-
000304 704  0.7-  1.1+    000307 557  0.2+  0.2-    000313 461  0.5+  0.2+
000305 595  0.5+  0.9-    000307 557  0.1-  0.1+    000313 461  0.4+  0.6+
000305 595  0.8+  0.7-    000307 106  0.4-  0.1+    000313 461  0.6+  0.6+
000305 595  0.1+  0.1-    000307 106  0.3-  0.5+    000313 461  0.6+  0.2+
000305 704  0.1-  0.2-    000311 670  0.1+  0.5+    000314 046  0.0+  0.0+
000305 704  0.1+  0.1-    000311 670  0.0+  0.8+    000314 046  0.1-  0.2-
000305 704  0.1-  0.3-    000311 670  0.7+  0.6+    000314 046  0.5+  0.1+
000305 704  0.2+  0.1-    000311 670  0.6+  0.4+    000314 046  0.7+  0.1-
000305 704  0.1-  0.3+    000312 104  0.3-  0.2+    000314 046  0.3+  0.4-
000306 866  0.3+  2.4-    000312 104  0.1-  0.0-    000314 689  0.6-  0.0-
000306 866  0.9+  1.3-    000312 104  0.4-  0.3-    000315 689  1.0-  0.0-
000306 866  0.2-  2.6-    000312 104  0.3-  0.4-    000315 689  0.5+  0.3+
000306 587  0.5-  0.0+    000312 104  0.2-  0.1+    000320 251/251D 0.307-
000306 587  0.1+  0.2-    000312 104  0.4-  0.3-    030223 J95  0.3-  0.3-
000306 046  0.5+  0.9+    000312 104  0.2-  0.4-    030223 J95  0.6-  0.4+
000306 046  0.7+  0.1+    000312 104  0.2-  0.4-    030223 J95  0.2+  1.6+
000306 046  0.7+  0.3+    000313 540  0.1+  0.4+    030224 557  0.4+  1.2+
000306 046  0.2-  0.2+    000313 540  0.1+  0.2+    030224 557  0.2+  1.1-
000306 611  0.8-  0.2-    000313 540  0.1+  0.2+    030224 557  0.6+  0.8-
000306 611  0.4-  0.1+    000313 540  0.1-  0.4+

Ephemeris:
2000 ED14                a,e,i = 0.84, 0.57, 14                  q = 0.3618
Date    TT    R. A. (2000) Decl.     Delta      r     Elong.  Phase     V
2003 02 20    11 02.09   +43 32.7    0.301    1.249   145.8    26.4    19.9
2003 03 02    09 36.90   +47 07.1    0.276    1.209   137.4    33.7    19.8
2003 03 12    08 07.62   +44 49.7    0.279    1.158   120.1    47.9    20.1
2003 03 22    07 04.81   +38 45.8    0.299    1.097   101.7    62.8    20.6
2003 04 01    06 26.07   +32 07.3    0.327    1.023    84.8    76.6    21.1
2003 04 11    05 59.13   +26 02.2    0.354    0.936    69.2    90.1    21.6

Gareth V. Williams           (C) Copyright 2003 MPC           M.P.E.C. 2003-D16

Read MPEC 2003-D15 Read MPEC 2003-D17


MPEC number:

Enter an
MPEC number in one of the following forms:
  • 1997-B01 (the full form)
  • J97B01 (the packed version of the full form)
  • B01 (the abbreviated form)

Valid HTML 4.01!